TimeCDT,TemperatureF,Dew PointF,Humidity,Sea Level PressureIn,VisibilityMPH,Wind Direction,Wind SpeedMPH,Gust SpeedMPH,PrecipitationIn,Events,Conditions,WindDirDegrees,DateUTC
12:15 AM,58.1,48.7,71,29.81,10.0,NNE,5.8,-,N/A,,Clear,20,2012-10-02 05:15:00
12:35 AM,59.0,48.2,67,29.80,10.0,NNE,6.9,-,N/A,,Clear,20,2012-10-02 05:35:00
12:55 AM,57.7,49.1,73,29.80,10.0,NNE,5.8,-,N/A,,Clear,20,2012-10-02 05:55:00
1:15 AM,57.2,48.7,73,29.80,10.0,North,4.6,-,N/A,,Scattered Clouds,10,2012-10-02 06:15:00
1:35 AM,57.2,49.1,74,29.81,10.0,NNE,4.6,-,N/A,,Scattered Clouds,20,2012-10-02 06:35:00
1:55 AM,56.8,49.1,75,29.80,10.0,North,5.8,-,N/A,,Clear,10,2012-10-02 06:55:00
2:15 AM,57.2,49.3,75,29.80,10.0,North,5.8,-,N/A,,Clear,10,2012-10-02 07:15:00
2:35 AM,57.4,48.9,73,29.80,10.0,NNE,4.6,-,N/A,,Clear,20,2012-10-02 07:35:00
2:55 AM,57.2,48.6,73,29.80,10.0,North,4.6,-,N/A,,Scattered Clouds,10,2012-10-02 07:55:00
3:15 AM,57.4,48.0,71,29.81,10.0,NNE,4.6,-,N/A,,Scattered Clouds,20,2012-10-02 08:15:00
3:35 AM,57.2,48.2,72,29.81,10.0,NNE,3.5,-,N/A,,Clear,30,2012-10-02 08:35:00
3:55 AM,56.8,48.4,73,29.81,10.0,NNE,5.8,-,N/A,,Clear,30,2012-10-02 08:55:00
4:15 AM,56.8,48.0,72,29.81,10.0,North,6.9,-,N/A,,Clear,10,2012-10-02 09:15:00
4:35 AM,56.8,47.5,71,29.81,10.0,NNE,5.8,-,N/A,,Clear,30,2012-10-02 09:35:00
4:55 AM,56.3,47.3,72,29.82,10.0,North,4.6,-,N/A,,Clear,10,2012-10-02 09:55:00
5:15 AM,56.5,46.4,69,29.82,10.0,NNE,5.8,-,N/A,,Clear,30,2012-10-02 10:15:00
5:35 AM,56.1,45.7,68,29.83,10.0,NNE,6.9,-,N/A,,Clear,30,2012-10-02 10:35:00
5:55 AM,55.9,45.5,68,29.83,10.0,NE,6.9,-,N/A,,Clear,50,2012-10-02 10:55:00
6:15 AM,54.9,45.0,69,29.84,10.0,NE,6.9,-,N/A,,Clear,40,2012-10-02 11:15:00
6:35 AM,53.6,45.0,73,29.83,10.0,NE,5.8,-,N/A,,Clear,40,2012-10-02 11:35:00
6:55 AM,53.1,44.8,73,29.84,10.0,North,4.6,-,N/A,,Clear,10,2012-10-02 11:55:00
7:15 AM,52.7,44.8,74,29.85,10.0,Calm,Calm,-,N/A,,Clear,0,2012-10-02 12:15:00
7:35 AM,54.0,45.5,73,29.85,10.0,Calm,Calm,-,N/A,,Clear,0,2012-10-02 12:35:00
7:55 AM,53.8,46.0,75,29.86,10.0,Calm,Calm,-,N/A,,Clear,0,2012-10-02 12:55:00
8:15 AM,55.2,46.8,73,29.86,10.0,NNE,3.5,-,N/A,,Clear,30,2012-10-02 13:15:00
8:35 AM,58.1,47.5,68,29.86,10.0,NE,8.1,-,N/A,,Clear,40,2012-10-02 13:35:00
8:55 AM,59.7,47.3,63,29.85,10.0,NNE,9.2,-,N/A,,Clear,20,2012-10-02 13:55:00
9:15 AM,59.9,47.7,64,29.85,10.0,NE,9.2,-,N/A,,Clear,40,2012-10-02 14:15:00
9:35 AM,61.5,47.3,60,29.85,10.0,NNE,10.4,-,N/A,,Clear,20,2012-10-02 14:35:00
9:55 AM,64.6,47.3,53,29.85,10.0,NE,13.8,19.6,N/A,,Clear,40,2012-10-02 14:55:00
10:15 AM,66.4,45.7,47,29.85,10.0,NE,13.8,24.2,N/A,,Clear,40,2012-10-02 15:15:00
10:35 AM,67.3,45.5,45,29.85,10.0,NE,15.0,23.0,N/A,,Clear,50,2012-10-02 15:35:00
10:55 AM,68.0,44.8,43,29.84,10.0,NE,13.8,20.7,N/A,,Scattered Clouds,50,2012-10-02 15:55:00
11:15 AM,68.7,43.9,41,29.85,10.0,NE,12.7,21.9,N/A,,Mostly Cloudy,40,2012-10-02 16:15:00
11:35 AM,67.5,43.0,41,29.84,10.0,NE,12.7,18.4,N/A,,Clear,50,2012-10-02 16:35:00
11:55 AM,69.1,41.2,36,29.84,10.0,NE,15.0,23.0,N/A,,Clear,40,2012-10-02 16:55:00
12:15 PM,66.4,39.7,38,29.84,10.0,NE,12.7,24.2,N/A,,Clear,50,2012-10-02 17:15:00
12:35 PM,67.6,39.4,36,29.83,10.0,NE,15.0,-,N/A,,Clear,50,2012-10-02 17:35:00
12:55 PM,70.2,40.3,34,29.83,10.0,NE,18.4,21.9,N/A,,Scattered Clouds,50,2012-10-02 17:55:00
1:15 PM,70.2,41.7,36,29.83,10.0,North,9.2,18.4,N/A,,Scattered Clouds,360,2012-10-02 18:15:00
1:35 PM,70.5,43.0,37,29.82,10.0,NNE,10.4,17.3,N/A,,Scattered Clouds,30,2012-10-02 18:35:00
1:55 PM,71.8,43.2,36,29.82,10.0,NNE,10.4,17.3,N/A,,Scattered Clouds,20,2012-10-02 18:55:00
2:15 PM,69.1,44.2,41,29.82,10.0,NNE,11.5,19.6,N/A,,Scattered Clouds,30,2012-10-02 19:15:00
2:35 PM,68.7,46.6,45,29.82,10.0,NNE,11.5,18.4,N/A,Rain,Light Rain,30,2012-10-02 19:35:00
2:55 PM,68.0,48.2,49,29.82,10.0,NNE,10.4,-,N/A,Rain,Light Rain,20,2012-10-02 19:55:00
3:15 PM,67.6,48.0,49,29.83,10.0,NE,12.7,18.4,N/A,Rain,Light Rain,40,2012-10-02 20:15:00
3:35 PM,65.1,50.2,58,29.83,10.0,NE,8.1,-,N/A,Rain,Light Rain,40,2012-10-02 20:35:00
3:55 PM,64.9,48.9,56,29.83,10.0,NNE,6.9,-,N/A,,Overcast,30,2012-10-02 20:55:00
4:15 PM,64.2,49.3,58,29.83,10.0,NE,12.7,18.4,N/A,,Drizzle,50,2012-10-02 21:15:00
4:35 PM,63.3,49.8,61,29.83,10.0,NE,9.2,-,N/A,,Overcast,50,2012-10-02 21:35:00
4:55 PM,64.4,49.6,59,29.83,10.0,NE,6.9,-,N/A,,Overcast,40,2012-10-02 21:55:00
5:15 PM,63.9,49.5,59,29.83,10.0,NE,11.5,-,N/A,,Overcast,50,2012-10-02 22:15:00
5:35 PM,63.9,48.7,58,29.84,10.0,NE,8.1,-,N/A,,Overcast,40,2012-10-02 22:35:00
5:55 PM,63.7,48.6,58,29.84,10.0,NNE,5.8,-,N/A,,Overcast,30,2012-10-02 22:55:00
6:15 PM,63.5,48.6,58,29.85,10.0,NE,4.6,-,N/A,,Overcast,40,2012-10-02 23:15:00
6:35 PM,62.6,49.5,62,29.86,10.0,ENE,6.9,-,N/A,,Overcast,60,2012-10-02 23:35:00
6:55 PM,62.6,49.5,62,29.86,10.0,NE,5.8,-,N/A,,Overcast,50,2012-10-02 23:55:00
7:15 PM,62.4,49.5,63,29.87,10.0,NE,6.9,-,N/A,,Overcast,50,2012-10-03 00:15:00
7:35 PM,62.8,49.3,61,29.87,10.0,NE,6.9,-,N/A,,Overcast,50,2012-10-03 00:35:00
7:55 PM,62.2,50.0,64,29.88,10.0,NE,8.1,-,N/A,,Overcast,50,2012-10-03 00:55:00
8:15 PM,61.7,50.9,68,29.89,10.0,East,4.6,-,N/A,,Overcast,80,2012-10-03 01:15:00
8:35 PM,61.3,51.8,71,29.89,10.0,East,4.6,-,N/A,,Overcast,90,2012-10-03 01:35:00
8:55 PM,61.2,52.7,74,29.89,10.0,ENE,6.9,-,N/A,,Overcast,60,2012-10-03 01:55:00
9:15 PM,61.0,53.1,75,29.90,10.0,ENE,4.6,-,N/A,,Overcast,60,2012-10-03 02:15:00
9:35 PM,60.6,53.6,78,29.90,7.0,Calm,Calm,-,N/A,Rain,Rain,0,2012-10-03 02:35:00
9:55 PM,60.4,53.8,79,29.90,10.0,NE,5.8,-,N/A,,Overcast,40,2012-10-03 02:55:00
10:15 PM,59.7,54.5,83,29.90,7.0,NE,5.8,-,N/A,,Overcast,50,2012-10-03 03:15:00
10:35 PM,58.8,54.7,86,29.90,5.0,ENE,9.2,-,N/A,,Overcast,60,2012-10-03 03:35:00
10:55 PM,58.5,55.2,89,29.90,10.0,NE,5.8,-,N/A,,Overcast,50,2012-10-03 03:55:00
11:15 PM,59.0,55.4,88,29.90,10.0,NE,5.8,-,N/A,,Overcast,50,2012-10-03 04:15:00
11:35 PM,59.0,54.9,86,29.89,10.0,NNE,4.6,-,N/A,,Overcast,30,2012-10-03 04:35:00
11:55 PM,59.2,54.7,85,29.89,10.0,NNE,5.8,-,N/A,,Overcast,30,2012-10-03 04:55:00